Время (UTC), дата Ветер
(°,м/с) 
Видим.   Явления Облачность Т
(°С)
Тd
(°С)
f(%) Тe
(°С)
Pmin
(гПа)
dP
(гПа)
Po
(мм)
O2
(г/м3)
Тmin Tmax R s Состояние
почвы
00 01.05.12 350 (С) 10 км    ясно 
+3.7 +0.3 78 +5  1013.6  0.4  749  298           
03 01.05.12 320 (СЗ) >10 км    ясно 
+3.9 +0.9 81 +5  1013.8  0.2  750  298           
06 01.05.12 300 (СЗ) >10 км    10/3 600 м верхняя 
[Cu hum|Cs]
+7.2 +1.3 66 +6  1012.8  -0.8  749  294  +3.2         
09 01.05.12 320 (СЗ) >10 км    10/1 600 м средняя, верхняя 
[Cu hum|Ac cast|Ci]
+9.8 +0.2 51 +10  1010.1  -2.5  747  291           
12 01.05.12 300 (СЗ) >10 км    8/3 1000 м средняя, верхняя 
[Cu hum|Ac lent|Ci fib]
+11.4 +0.6 47 +11  1006.8  -3.1  745  288           
15 01.05.12 240 (ЮЗ) >10 км    9/6 930 м средняя 
[Sc|Ac cast]
+11.6 +0.3 46 +12  1003.4  -3.3  742  287    +12       
18 01.05.12 220 (ЮЗ) 10 км  слаб. дождь  10/10 800 м 
[Sc diur, vesp]
+10 +2.8 61 +11  1000.4  -3  740  287    +12       
21 01.05.12 110 (В) 10 км  {дождь}  10/10 930 м 
[Sc]
+8 +3.5 73 +8  996.4  -4.1  737  288           
00 02.05.12 090 (В) 10 км  {дождь}  10/8 960 м средняя 
[Sc|Ac cast]
+7.4 +3.1 74 +7  995.5  -0.8  736  288           
03 02.05.12 060 (СВ) >10 км    10/3 600 м средняя 
[Sc|As op]
+7.1 +3.8 79 +6  998.7  3.1  739  289           
06 02.05.12 040 (СВ) 10 км    10/10 840 м 
[Sc]
+8.8 +3.7 70 +8  1002.9  4.2  742  289  +6.9    0.0     
09 02.05.12 360 (С) 3{10}  10 км    9/9 720 м 
[Sc]
+8.3 +2.5 67 +8  1006  4.2  744  291           
12 02.05.12 020 (С) 4-10{12}  10 км    8/8 1000 м 
[Sc]
+10.2 -0.8 46 +9  1007.2  1.3  745  289           
15 02.05.12 330 (СЗ) 3{10}  10 км    10/8 930 м верхняя 
[Sc|Ci fib]
+9.1 -3.1 42 +9  1007.9  0.6  745  291    +10.6       
18 02.05.12 320 (СЗ) 10 км    8/3 600 м верхняя 
[Sc|Ci fib]
+7.8 -1.6 51 +8  1008  745  292    +10.6  0.3     
21 02.05.12 250 (З) 10 км    4/3 600 м верхняя 
[Sc|Ci fib]
+5.1 -0.4 68 +6  1007.6  -0.6  745  295           
00 03.05.12 270 (З) 10 км    10/0 <0100 м средняя 
[As trans]
+6.1 +1.1 70 +6  1006.2  -1.2  744  293           
03 03.05.12 260 (З) 4000 м  слаб. дождь  10/10 480 м 
[Sc]
+4.9 +2.3 83 +6  1004.8  -1.2  743  294           
06 03.05.12 240 (ЮЗ) 10 км  слаб. дождь  10/10 540 м 
[Frnb]
+4.7 +2.3 84 +6  1002.9  -1.9  742  293  +4         
09 03.05.12 290 (З) 10 км  {дождь, морось}  10/10 570 м 
[Frnb]
+6.3 +3.3 81 +5  1002.4  -0.4  741  291           
12 03.05.12 290 (З) >10 км  {дождь, морось}  9/5 600 м кучево-дожд., средняя 
[Cb calv|Ac lent]
+8.3 +2.4 66 +7  1002.9  0.5  742  290           
15 03.05.12 310 (СЗ) >10 км    3/0 верхняя 
[Cu hum|Ci fib]
+9.3 +0.9 56 +9  1003  0.2  742  289           
18 03.05.12 230 (ЮЗ) 10 км  слаб. дождь  10/10 700 м 
[Sc]
+7.4 +2.3 70 +8  1002.7  -0.4  742  291    +9.5     
21 03.05.12 090 (В) 10 км  слаб. дождь  10/10 720 м 
[Sc]
+6.5 +4.1 85 +7  1001.4  -1.3  741  291           
00 04.05.12 030 (СВ) 10 км  {дождь}  3/3 <0100 м средняя 
[Ac cast]
+6.1 +4 86 +6  1000.4  -1  740  291           
03 04.05.12 280 (З) 10 км    5/5 <0100 м средняя 
[Ac cast]
+7.6 +5.1 84 +8  1000.5  0.2  740  289           
06 04.05.12 310 (СЗ) >10 км    3/3 600 м средняя 
[Cu hum|Ac cast]
+8.9 -0 54 +8  1002.2  1.8  741  289  +5.3    0.5     
09 04.05.12 290 (З) 5{11}  >10 км    9/9 800 м кучево-дожд. 
[Cb cap]
+10 -2.3 42 +9  1003.4  1.2  742  289           
12 04.05.12 330 (СЗ) 4{13}  >10 км    8/8 800 м 
[Cu med, cong]
+10.8 -3.7 36 +10  1006  2.5  744  289           
15 04.05.12 320 (СЗ) 3{10}  >10 км    6/6 800 м 
[Cu med, cong]
+10.9 -2.7 38 +11  1008  746  289    +11.2       
18 04.05.12 020 (С) 10 км    ясно 
+7 +0.5 63 +7  1011.1  2.8  748  294    +11.2       
21 04.05.12 320 (СЗ) 10 км    ясно 
+5.7 +0.3 68 +7  1012.8  1.6  749  296           
00 05.05.12 тихо ()   10 км    ясно 
+2.5 -0.1 83 +3  1015  750  300           
03 05.05.12 320 (СЗ) >10 км    ясно 
+5 +0.8 74 +5  1017.3  2.4  752  298           
06 05.05.12 290 (З) >10 км    3/0 верхняя 
[Ci fib]
+9.7 -2.1 44 +10  1018.3  1.2  753  293  +1.7         
09 05.05.12 270 (З) >10 км    3/3 600 м верхняя 
[Cu hum|Ci fib]
+12.5 -1.9 37 +12  1018.1  0.1  753  290           
12 05.05.12 290 (З) >10 км    8/0 верхняя 
[Cu hum|Cs]
+13.7 -3.7 30 +14  1017.6  -0.5  753  289           
15 05.05.12 230 (ЮЗ) >10 км    3/0 <0100 м верхняя 
[Ci fib]
+14 -2.1 33 +15  1017.1  -0.4  752  289    +14.6       
18 05.05.12 160 (Ю) 10 км    3/0 верхняя 
[Ci fib]
+9.8 -1.1 47 +10  1017.3  752  293    +14.6       
21 05.05.12 150 (ЮВ) 10 км    4/0 верхняя 
[Ci fib]
+9 -0.6 51 +8  1016.1  -1.2  752  293           
00 06.05.12 150 (ЮВ) 10 км    9/8 800 м средняя 
[Sc|Ac cast]
+9.7 +1.1 55 +8  1014  -2  750  292           
03 06.05.12 190 (Ю) >10 км  {дождь}  10/10 840 м 
[Sc]
+9.8 +4.3 69 +10  1013.4  -0.6  749  291           
06 06.05.12 200 (Ю) 10 км  {ливн. осадки, дождь}  10/3 700 м кучево-дожд., средняя, верхняя 
[Cb cap|Ac cast|Ci fib]
+13.3 +8.3 72 +13  1011.3  -1.9  748  286  +8.7    0.3     
09 06.05.12 260 (З) >10 км    10/8 <0100 м средняя, верхняя 
[Ac As|Ci fib]
+19.5 +10.4 56 +22  1011.3  0.2  748  280           
12 06.05.12 300 (СЗ) 3{10}  >10 км    10/4 1000 м средняя, верхняя 
[Cu med, cong|Ac cast|Ci fib]
+21.7 +10.9 50 +24  1011.8  0.6  749  277           
15 06.05.12 300 (СЗ) >10 км    10/0 <0100 м верхняя 
[Ci fib]
+21.6 +11 51 +24  1013.1  1.3  750  278    +22.9       
18 06.05.12 тихо ()   10 км    3/0 средняя 
[Ac lent]
+15.4 +11.2 76 +18  1015.1  1.7  751  284    +22.9     
21 06.05.12 070 (В) 10 км    10/0 верхняя 
[Ci]
+14.8 +10 73 +16  1017  1.8  752  286           
00 07.05.12 100 (В) 10 км    8/3 600 м средняя 
[Sc|Ac cast]
+13.6 +9.9 78 +15  1017.8  0.7  753  287           
03 07.05.12 110 (В) >10 км    10/0 средняя 
[Sc|Ac As]
+14.3 +8.1 66 +14  1018.2  0.4  753  287           
06 07.05.12 110 (В) 4{11}  >10 км  {гроза, ливн. осадки}  10/0 средняя 
[Sc diur, vesp|Ac lent]
+14.8 +8.9 68 +15  1018  -0.2  753  286  +13.3         
09 07.05.12 150 (ЮВ) >10 км  {гроза, ливн. осадки}  8/0 средняя 
[Sc diur, vesp|Ac cast]
+21 +11.4 54 +24  1018.1  0.4  753  280           
12 07.05.12 180 (Ю) >10 км    4/0 средняя, верхняя 
[Ac lent|Cc]
+23.2 +12.5 51 +28  1016.7  -1.2  752  277           
15 07.05.12 150 (ЮВ) >10 км    10/5 600 м средняя, верхняя 
[Sc|Ac cuf|Cs]
+22.1 +13.2 57 +28  1015.9  -0.9  752  278           
18 07.05.12 110 (В) 10 км  зарница{гроза}  8/8 700 м 
[Sc]
+20 +12.9 64 +25  1017.2  1.2  753  280    +24.6     
21 07.05.12 150 (ЮВ) 10 км    ясно 
+17 +12.7 76 +23  1017.2  0.1  753  283           
00 08.05.12 160 (Ю) 10 км    3/1 600 м средняя 
[Sc|Ac cast]
+16.2 +9.3 64 +18  1017.8  0.5  753  285           
03 08.05.12 170 (Ю) 10 км    6/6 800 м 
[Sc]
+16.6 +8.6 59 +17  1018.2  0.4  753  285           
06 08.05.12 230 (ЮЗ) >10 км    1/0 средняя 
[Ac cast]
+22.4 +8.5 41 +22  1018.8  0.8  754  279  +15.1         
09 08.05.12 180 (Ю) >10 км    ясно 
+26.8 +7.9 30 +27  1018.3  -0.3  754  275           
12 08.05.12 220 (ЮЗ) >10 км  в посл. час ливневой дождь  8/8 800 м кучево-дожд., верхняя 
[Cb cap|Ci fib]
+25.9 +5.5 27 +26  1018.3  -0.3  754  277           
15 08.05.12 280 (З) 1{11}  >10 км  {ливн. осадки}  10/5 720 м кучево-дожд., средняя, верхняя 
[Cb cap|Ac cuf|Ci fib]
+21.6 +10.5 49 +23  1019.7  1.3  755  280    +28       
18 08.05.12 340 (С) 10 км  в посл. час дождь{ливн. осадки}  10/6 400 м кучево-дожд., средняя 
[Cb cap|Ac lent]
+18.9 +11.5 62 +23  1021.1  1.2  756  283    +28  0.0     
21 08.05.12 тихо ()   10 км  {дождь}  8/8 540 м 
[Sc]
+16.8 +12.4 75 +21  1021.3  0.2  756  284           
00 09.05.12 260 (З) 10 км    10/8 630 м средняя 
[Sc|Ac lent]
+16.1 +11.5 74 +20  1022.8  1.4  757  286           
03 09.05.12 100 (В) >10 км  {дождь}  10/9 300 м средняя 
[Ac lent]
+16.4 +13 80 +23  1023.1  0.3  757  285           
06 09.05.12 260 (З) >10 км  {дождь}  9/4 1000 м средняя 
[Sc|Ac cast]
+19.7 +13.5 67 +27  1024.4  1.4  758  282  +15.1    0.8     
09 09.05.12 250 (З) >10 км    9/0 средняя 
[Sc|Ac cast]
+22.4 +13.1 56 +28  1024.8  0.6  758  280           
12 09.05.12 240 (ЮЗ) >10 км    5/3 1380 м средняя 
[Cu med, cong|Ac lent]
+23.8 +12.5 49 +28  1024.7  758  279           
15 09.05.12 120 (ЮВ) >10 км    8/1 1200 м средняя, верхняя 
[Sc diur, vesp|Ac lent|Ci fib]
+23.5 +12.5 50 +28  1024.3  -0.4  758  279    +25.6       
18 09.05.12 120 (ЮВ) 10 км  {ливн. осадки}  10/10 800 м кучево-дожд. 
[Cb cap]
+21.3 +11.3 53 +24  1024.9  0.4  758  281    +25.6       
21 09.05.12 160 (Ю) 10 км    10/10 800 м 
[Sc diur, vesp]
+19.7 +10.6 56 +23  1024.6  -0.4  758  283           
00 10.05.12 150 (ЮВ) 10 км    9/9 960 м 
[Sc]
+17.6 +9.9 61 +19  1024.4  -0.3  758  285           
03 10.05.12 140 (ЮВ) 10 км    10/3 900 м средняя, верхняя 
[Sc|Ac cast|Ci fib]
+17.4 +10.7 65 +20  1024.1  -0.3  758  285           
06 10.05.12 260 (З) >10 км    5/0 <0100 м верхняя 
[Ci fib]
+24 +9.4 40 +24  1023.7  0.1  758  279  +16.2    0.0     
09 10.05.12 250 (З) >10 км    8/0 <0100 м верхняя 
[Ci fib]
+28 +4.5 22 +28  1023.2  -0.3  757  276           
12 10.05.12 280 (З) >10 км    8/4 900 м верхняя 
[Sc|Ci fib]
+29.1 +3 19 +29  1021.7  -1.5  756  275           
15 10.05.12 200 (Ю) 2{10}  10 км  {ливн. осадки}  9/3 700 м кучево-дожд., средняя, верхняя 
[Cb cap|Ac cast|Ci fib]
+22.8 +10.1 45 +24  1022.1  0.2  756  280    +29.5       
18 10.05.12 160 (Ю) 10 км  в посл. час гроза{ливн. осадки}  6/3 600 м кучево-дожд., средняя 
[Cb cap|Ac cast]
+16.8 +14 84 +25  1023.2  0.8  757  285    +29.5  0.0     
21 10.05.12 290 (З) 10 км    ясно 
+16.2 +11.9 76 +22  1023.7  0.4  757  286           
00 11.05.12 290 (З) 10 км    ясно 
+12.9 +10 83 +14  1024.6  0.8  758  290           
03 11.05.12 350 (С) >10 км    10/10 800 м 
[Sc]
+12.2 +7.7 74 +13  1026  1.3  759  291           
06 11.05.12 360 (С) >10 км    10/10 700 м 
[Sc]
+13.2 +8.2 72 +14  1026.4  0.4  759  290  +12       
09 11.05.12 300 (СЗ) >10 км    9/9 800 м 
[Sc]
+14.8 +9.1 69 +15  1025.8  -0.5  759  288           
12 11.05.12 150 (ЮВ) >10 км    3/0 <0100 м верхняя 
[Ci]
+18.4 +9.7 57 +21  1024.2  -1.4  758  284           
15 11.05.12 310 (СЗ) >10 км    4/0 <0100 м верхняя 
[Ci fib]
+18.2 +9.9 58 +20  1022.8  -1.4  757  284    +19.2       
18 11.05.12 190 (Ю) 10 км    8/0 <0100 м верхняя 
[Ci fib]
+12.9 +10 83 +15  1021.7  -1.4  756  289    +19.2       
21 11.05.12 170 (Ю) 10 км    5/0 <0100 м верхняя 
[Ci fib]
+11.8 +9.4 85 +13  1020.5  -1.4  755  290           
00 12.05.12 150 (ЮВ) 10 км    5/0 <0100 м верхняя 
[Ci fib]
+10 +8.5 90 +11  1019.6  -1  754  292           
03 12.05.12 160 (Ю) 10 км    8/0 <0100 м верхняя 
[Ci fib]
+12.9 +9.9 82 +15  1018.2  -1.2  753  288           
06 12.05.12 260 (З) >10 км    10/0 верхняя 
[Ci fib]
+19.6 +10 54 +22  1016.5  -1.4  752  281  +9.1         
09 12.05.12 260 (З) >10 км    10/0 верхняя 
[Ci fib]
+23.7 +11.5 46 +27  1014.8  -1.5  751  276           
12 12.05.12 280 (З) >10 км    10/3 600 м верхняя 
[Cu hum|Ci]
+24.6 +11.3 43 +28  1013.1  -1.7  750  275           
15 12.05.12 260 (З) >10 км    3/0 верхняя 
[Ci fib]
+25.1 +11.5 43 +28  1011  -2  748  274    +25.6       
18 12.05.12 170 (Ю) 10 км    3/0 <0100 м верхняя 
[Ci fib]
+20.5 +11.8 57 +24  1009.8  -1.4  747  278    +25.6       
21 12.05.12 170 (Ю) 10 км    ясно 
+17.9 +12.3 70 +23  1009.4  -1.4  747  280           
00 13.05.12 170 (Ю) 10 км    6/0 <0100 м верхняя 
[Ci]
+15.9 +12.6 81 +22  1008.4  -1.1  746  282           
03 13.05.12 250 (З) >10 км    4/0 <0100 м верхняя 
[Ci fib]
+19.3 +13.1 67 +26  1008.3  0.1  746  278           
06 13.05.12 270 (З) >10 км    1/0 верхняя 
[Ci fib]
+23.2 +13.4 54 +29  1008.1  746  274  +14.9         
09 13.05.12 270 (З) >10 км    8/8 600 м 
[Cu med, cong]
+26.6 +13.5 44 +33  1007.9  0.1  746  271           
12 13.05.12 310 (СЗ) >10 км    6/6 600 м кучево-дожд. 
[Cb cap]
+27.1 +12.1 39 +31  1007.5  -0.4  746  271           
15 13.05.12 020 (С) >10 км    1/0 <0100 м средняя 
[Ac cast]
+24.3 +15.2 57 +33  1008.6  747  273    +27.5       
18 13.05.12 020 (С) 10 км    ясно 
+17 +11.7 71 +21  1012  749  282    +27.5       
21 13.05.12 340 (С) 10 км    10/10 800 м 
[Sc]
+13.5 +10.3 81 +16  1014.1  1.9  750  286           
00 14.05.12 020 (С) 10 км  {ливн. осадки, дождь}  4/4 800 м 
[Sc diur, vesp]
+12 +9.4 84 +12  1014.9  0.8  751  288           
03 14.05.12 020 (С) >10 км    8/0 средняя 
[Ac cuf]
+11.9 +8.9 82 +12  1016  752  289           
06 14.05.12 040 (СВ) >10 км    8/3 <0100 м средняя, верхняя 
[Ac cast|Ci fib]
+16.3 +7.5 56 +17  1017.2  1.3  753  285  +11.3    0.8     
09 14.05.12 020 (С) >10 км    9/3 1000 м средняя, верхняя 
[Cu med, cong|Ac cast|Ci fib]
+18 +6.4 47 +19  1018.2  753  284           
12 14.05.12 040 (СВ) >10 км    5/1 <0100 м средняя, верхняя 
[Ac cast|Ci fib]
+18.6 +5.4 42 +19  1018.3  0.2  753  283           
15 14.05.12 030 (СВ) >10 км    9/3 <0100 м средняя, верхняя 
[Ac cast|Ci fib]
+16.8 +4.3 43 +17  1018.7  0.3  754  285    +19       
18 14.05.12 050 (СВ) 10 км    3/0 <0100 м средняя 
[Ac lent]
+13.1 +1.1 44 +13  1020.3  1.4  755  290    +19       
21 14.05.12 060 (СВ) 10 км    ясно 
+10.6 -1.8 42 +10  1021.7  1.3  756  293           
00 15.05.12 050 (СВ) 10 км    10/0 <0100 м средняя, верхняя 
[Ac lent|Cs]
+8.9 -2 46 +8  1022.8  0.9  756  295           
03 15.05.12 070 (В) >10 км    8/0 <0100 м средняя 
[Ac cast]
+10.3 -0.3 48 +10  1024  1.3  757  294           
06 15.05.12 080 (В) >10 км    8/0 верхняя 
[Ci]
+14.7 -1.7 32 +15  1025.1  1.3  758  290    +0.8       
09 15.05.12 070 (В) >10 км    1/0 верхняя 
[Ci fib]
+17 -2.3 27 +17  1025.2  0.1  758  288           
12 15.05.12 060 (СВ) >10 км    ясно 
+18 -1.7 26 +19  1024.9  -0.3  758  287           
15 15.05.12 070 (В) >10 км    ясно 
+18 -1.7 26 +19  1024.7  -0.1  758  287    +18.2       
18 15.05.12 070 (В) 10 км    ясно 
+14.5 -2.5 31 +16  1025.5  0.4  758  290    +18.2       
21 15.05.12 070 (В) 10 км    ясно 
+10.9 -3.1 37 +11  1026.1  0.4  759  294           
00 16.05.12 090 (В) 10 км    ясно 
+8.4 -4.2 41 +8  1026.7  0.5  759  297           
03 16.05.12 100 (В) >10 км    ясно 
+9 -4.4 38 +8  1027.8  760  297           
06 16.05.12 070 (В) >10 км    ясно 
+15 -0.2 35 +16  1026.6  -0.1  760  290  +7.2         
09 16.05.12 090 (В) >10 км    3/0 верхняя 
[Ci fib]
+18.6 +1 31 +20  1025.5  -1  759  286           
12 16.05.12 120 (ЮВ) >10 км    6/0 верхняя 
[Ci fib]
+21.2 +0.5 25 +21  1024.5  -0.9  758  283           
15 16.05.12 160 (Ю) >10 км    6/0 верхняя 
[Ci fib]
+20.3 +1.6 29 +20  1023.6  -0.9  757  284    +21.2       
18 16.05.12 120 (ЮВ) 10 км    3/0 средняя 
[Ac lent]
+14.3 +2.2 44 +16  1023.4  -0.5  757  290    +21.2       
21 16.05.12 120 (ЮВ) 10 км    ясно 
+13 +2.1 47 +13  1023.3  0.1  757  291           
00 17.05.12 тихо ()   10 км    ясно 
+9.9 +1.8 57 +10  1024.4  0.9  758  294           
03 17.05.12 100 (В) >10 км    3/0 верхняя 
[Ci fib]
+13.9 +0.7 40 +15  1024.1  0.1  758  290           
06 17.05.12 110 (В) >10 км    4/0 верхняя 
[Ci fib]
+19.7 +1.3 29 +21  1023.4  -0.4  757  284  +9.2         
09 17.05.12 070 (В) >10 км    3/0 верхняя 
[Ci fib]
+22 -0.4 22 +22  1022.5  -0.8  757  282           
12 17.05.12 200 (Ю) >10 км    3/0 средняя 
[Ac trans]
+23.5 -0.8 20 +24  1021.5  -0.9  756  281           
15 17.05.12 170 (Ю) >10 км    ясно 
+22.9 +1.6 25 +23  1020.8  -0.7  755  281    +24.2       
18 17.05.12 160 (Ю) 10 км    ясно 
+16 +5.6 50 +17  1021.4  0.2  756  287    +24.2       
21 17.05.12 тихо ()   10 км    ясно 
+12.7 +3.7 54 +13  1021.9  0.4  756  290           
00 18.05.12 тихо ()   10 км    ясно 
+11.7 +6.3 69 +12  1022.7  0.7  756  291           
03 18.05.12 320 (СЗ) >10 км    ясно 
+15.6 +9.3 66 +17  1023.1  0.6  757  287           
06 18.05.12 300 (СЗ) >10 км    4/4 800 м 
[Sc]
+21.8 +10.4 48 +23  1023.4  0.6  757  281  +11.4         
09 18.05.12 310 (СЗ) >10 км    5/5 800 м 
[Sc]
+25.5 +8.1 33 +26  1022.8  -0.5  757  278           
12 18.05.12 110 (В) >10 км    4/4 1000 м 
[Cu med, cong]
+26.8 +7.7 30 +27  1022.2  -0.5  757  276           
15 18.05.12 300 (СЗ) >10 км    5/1 900 м верхняя 
[Sc|Ci fib]
+25.3 +7.3 32 +25  1022.1  -0.5  757  278    +27.2       
18 18.05.12 тихо ()   10 км    ясно 
+17.4 +8.6 56 +17  1023.4  0.9  757  285    +27.2       
21 18.05.12 190 (Ю) 10 км    1/0 средняя 
[Ac cast]
+14.7 +8.1 65 +16  1024.5  0.9  758  288           
00 19.05.12 тихо ()   10 км    3/0 средняя 
[Ac cast]
+13.7 +9.5 76 +14  1025.3  0.8  758  289           
03 19.05.12 170 (Ю) >10 км    8/0 средняя 
[Ac cast]
+17.6 +10.3 62 +20  1026.5  1.4  760  286           
06 19.05.12 280 (З) >10 км    3/0 средняя 
[Ac lent]
+23.6 +7.5 36 +24  1026.9  0.6  760  281  +12.5         
09 19.05.12 310 (СЗ) >10 км    3/1 600 м верхняя 
[Cu hum|Ci fib]
+26 +5.4 27 +26  1026.7  0.1  760  279           
12 19.05.12 260 (З) >10 км    5/0 верхняя 
[Ci fib]
+26.8 +4.9 25 +27  1026.1  -0.6  759  278           
15 19.05.12 310 (СЗ) >10 км    6/0 верхняя 
[Ci fib]
+26.2 +4.5 25 +26  1025.3  -0.8  759  278    +27       
18 19.05.12 170 (Ю) 10 км    9/0 верхняя 
[Ci fib]
+17.6 +9.1 57 +19  1026.2  0.5  759  286    +27       
21 19.05.12 тихо ()   10 км    5/0 верхняя 
[Ci fib]
+15.5 +7.9 60 +16  1026.7  0.4  760  288           
00 20.05.12 тихо ()   10 км    8/0 средняя, верхняя 
[Ac cast|Ci fib]
+13.4 +8.6 73 +13  1027.2  0.4  760  290           
03 20.05.12 170 (Ю) >10 км    8/0 средняя, верхняя 
[Ac cast|Ci fib]
+17.9 +10.1 60 +20  1027.5  0.5  760  286           
06 20.05.12 270 (З) >10 км    10/3 600 м верхняя 
[Cu hum|Ci fib]
+24.3 +8.8 37 +24  1027.5  0.5  761  280  +12.9         
09 20.05.12 250 (З) >10 км    8/4 600 м верхняя 
[Cu hum|Ci fib]
+27.5 +5.5 25 +28  1026.8  -0.6  760  277           
12 20.05.12 290 (З) >10 км    1/1 600 м 
[Cu hum]
+27.8 +5.7 24 +28  1025.6  -1.2  759  277           
15 20.05.12 250 (З) >10 км    3/0 верхняя 
[Ci fib]
+27.8 +5.7 24 +28  1025.6  -1  758  276    +28.3       
18 20.05.12 160 (Ю) 10 км    ясно 
+21.2 +8.4 44 +21  1024.9  -1  758  282    +28.3       
21 20.05.12 тихо ()   10 км    ясно 
+16.9 +8.7 58 +17  1024.9  0.1  758  286           
00 21.05.12 тихо ()   10 км    ясно 
+15.4 +8.5 63 +15  1024.8  0.1  758  288           
03 21.05.12 170 (Ю) >10 км    ясно 
+18.4 +11.1 62 +22  1024.8  0.1  758  284           
06 21.05.12 230 (ЮЗ) >10 км    3/0 средняя 
[Ac cast]
+25.5 +8.8 35 +26  1023.9  -0.5  758  278  +14.4         
09 21.05.12 270 (З) >10 км    4/4 1000 м 
[Cu hum]
+28.1 +7.7 28 +28  1022.8  -1  757  275           
12 21.05.12 250 (З) >10 км    4/4 1000 м 
[Cu hum]
+28.1 +7.7 28 +28  1022.8  -1.4  756  275           
15 21.05.12 250 (З) >10 км    1/1 1000 м 
[Cu hum]
+26.6 +8.4 32 +27  1020.1  -1.3  755  276    +28.6       
18 21.05.12 тихо ()   10 км    3/0 
[Sc diur, vesp]
+21.6 +10.4 49 +23  1020.4  755  280    +28.6       
21 21.05.12 тихо ()   10 км    ясно 
+17.5 +10.2 62 +19  1019.9  -0.6  755  284           
00 22.05.12 тихо ()   10 км    1/1 600 м 
[Sc]
+15.3 +9.7 69 +16  1019.4  -0.7  754  286           
03 22.05.12 160 (Ю) >10 км    1/1 600 м 
[Cu med, cong]
+18.5 +10.9 61 +22  1019.3  0.1  754  283           
06 22.05.12 270 (З) >10 км    ясно 
+25.2 +11.8 43 +29  1018.3  -0.7  754  276  +14.1         
09 22.05.12 290 (З) >10 км    4/4 1000 м 
[Cu med, cong]
+27.9 +7.9 28 +28  1016.7  -1.4  753  274           
12 22.05.12 290 (З) >10 км    5/3 1000 м верхняя 
[Cu med, cong|Ci fib]
+28.2 +6.5 25 +28  1015  -1.7  751  273           
15 22.05.12 270 (З) >10 км    6/1 600 м верхняя 
[Sc|Ci fib]
+26.5 +7.9 31 +27  1013.4  -1.6  750  274    +28.2       
18 22.05.12 250 (З) 10 км    4/3 600 м верхняя 
[Sc|Ci fib]
+21.9 +8.4 42 +22  1013.6  750  278    +28.2       
21 22.05.12 320 (СЗ) 10 км    8/8 870 м 
[Sc]
+20.4 +11 55 +23  1012.7  -0.9  749  279           
00 23.05.12 180 (Ю) 10 км    3/3 600 м 
[Sc]
+15.6 +10.9 74 +19  1012  -0.9  749  283           
03 23.05.12 250 (З) >10 км    4/4 1000 м 
[Cu hum]
+18.7 +10.6 59 +22  1010.6  -1.2  748  280           
06 23.05.12 260 (З) >10 км    9/4 800 м верхняя 
[Cu hum|Ci]
+21.8 +11.3 51 +25  1009.7  -0.8  747  277  +14.9         
09 23.05.12 020 (С) >10 км    10/8 700 м верхняя 
[Cu Sc|Ci]
+20.3 +13.2 64 +26  1009.9  0.2  747  278           
12 23.05.12 030 (СВ) >10 км    10/10 720 м 
[Cu Sc]
+15.5 +10.4 72 +17  1012.2  749  284           
15 23.05.12 050 (СВ) 4-10{14}  >10 км    10/10 500 м 
[Sc]
+12.1 +8.5 79 +12  1014.1  1.6  750  288    +23.7       
18 23.05.12 060 (СВ) 3{11}  10 км  слаб. дождь  10/10 540 м 
[Sc]
+10.7 +6.5 75 +10  1017.2  752  291    +23.7       
21 23.05.12 050 (СВ) 10 км  слаб. дождь  10/10 540 м 
[Ns]
+9.7 +6.8 82 +9  1017.8  0.5  753  292           
00 24.05.12 050 (СВ) 10 км  {дождь}  9/0 <0100 м средняя 
[Ac cast]
+7.3 +1.3 66 +7  1018.9  754  296           
03 24.05.12 060 (СВ) >10 км    6/0 верхняя 
[Ci fib]
+7.5 +0.8 62 +7  1020  754  296           
06 24.05.12 050 (СВ) >10 км    6/1 1000 м верхняя 
[Cu hum|Ci fib]
+10.8 +0 47 +10  1020.4  755  293  +6.2    0.8     
09 24.05.12 060 (СВ) >10 км    3/3 1000 м 
[Cu hum]
+13.5 -1 37 +13  1020.5  0.2  755  290           
12 24.05.12 050 (СВ) >10 км    1/1 1000 м 
[Cu hum]
+14.5 -1.1 34 +14  1020.6  0.2  755  289           
15 24.05.12 060 (СВ) >10 км    1/1 1000 м 
[Cu hum]
+14.2 -1.7 33 +14  1021  0.4  755  289    +15.3       
18 24.05.12 050 (СВ) 10 км    ясно 
+10.6 +0.2 49 +12  1022.3  1.1  756  293    +15.3  0.3     
21 24.05.12 060 (СВ) 10 км    ясно 
+7.9 +0.8 61 +8  1023.3  0.9  757  296           
00 25.05.12 070 (В) 10 км    ясно 
+6 +0.3 67 +5  1023.7  0.4  757  298           
03 25.05.12 050 (СВ) >10 км    ясно 
+7.6 +0.2 59 +7  1024  0.3  757  297           
06 25.05.12 080 (В) >10 км    4/1 1000 м верхняя 
[Cu hum|Cs]
+12 -0.2 43 +12  1024  0.3  757  292  +5.4         
09 25.05.12 050 (СВ) >10 км    ясно верхняя 
[Ci fib]
+15 -1 33 +15  1022  0.3  756  289           
12 25.05.12 060 (СВ) >10 км    10/0 средняя, верхняя 
[As trans|Cs]
+16.2 -1.1 31 +16  1021.2  -0.8  755  287           
15 25.05.12 080 (В) >10 км    10/0 средняя 
[As op]
+15.5 -0.2 34 +16  1020.1  -1.1  755  288    +16.4       
18 25.05.12 070 (В) 10 км    9/0 средняя 
[Ac lent]
+13.5 -0.2 39 +14  1020.1  0.1  755  290    +16.4       
21 25.05.12 080 (В) 10 км    10/0 средняя 
[As op]
+12.5 -0.6 40 +12  1018.9  -1.2  754  290           
00 26.05.12 100 (В) 10 км  слаб. дождь  10/10 800 м 
[Sc]
+11.2 +1.6 52 +11  1017.7  -1.2  753  291           
03 26.05.12 060 (СВ) >10 км  {дождь}  10/10 600 м 
[Sc]
+10.4 +4.4 66 +10  1016.2  -1.6  752  291           
06 26.05.12 070 (В) 10 км  слаб. дождь  10/10 480 м 
[Ns]
+10.2 +6.4 77 +10  1015.4  -0.7  751  291  +9.9    0.3     
09 26.05.12 070 (В) 10 км  {дождь}  10/0 средняя 
[Ac As]
+11.8 +8.5 80 +12  1013.7  -1.6  750  288           
12 26.05.12 070 (В) 10 км  {дождь}  10/0 средняя 
[Ac As]
+11.6 +9.3 86 +11  1012.6  -1.1  749  288           
15 26.05.12 080 (В) 3{10}  4000 м  ливневой дождь  10/10 480 м кучево-дожд. 
[Cb cap]
+11.8 +9.6 86 +13  1011.1  -1.5  748  287    +13.2       
18 26.05.12 050 (СВ) 10 км  слаб. дождь{ливн. осадки}  10/10 720 м 
[Sc diur, vesp]
+11.2 +9.9 92 +12  1010.7  -0.4  748  288    +13.2     
21 26.05.12 050 (СВ) 10 км  {дождь}  10/6 600 м средняя 
[Sc|Ac cast]
+10.5 +9.5 94 +12  1009.4  -1.3  747  288           
00 27.05.12 040 (СВ) 10 км  {дождь}  10/10 700 м 
[Sc]
+10.1 +9.3 95 +10  1008.9  -0.5  746  288           
03 27.05.12 050 (СВ) >10 км    10/8 480 м верхняя 
[Frnb|Ci fib]
+11 +10 94 +12  1007.5  -1.3  745  287           
06 27.05.12 030 (СВ) 4000 м  дождь{ливн. осадки}  10/10 300 м 
[Sc]
+12.3 +11.1 92 +16  1007.7  0.2  745  285  +10.1       
09 27.05.12 010 (С) 4000 м  дождь{ливн. осадки}  10/6 300 м средняя 
[Sc|As trans]
+14 +13 94 +21  1007.9  0.3  746  283           
12 27.05.12 060 (СВ) >10 км  {ливн. осадки, дождь}  10/5 300 м средняя 
[Sc|Ac lent]
+17.8 +14.3 80 +27  1006.7  -0.9  745  279           
15 27.05.12 050 (СВ) >10 км  {дождь}  6/0 верхняя 
[Ci]
+17.9 +14.4 80 +26  1005.8  -0.9  744  278    +19.1       
18 27.05.12 070 (В) 10 км    10/10 800 м 
[Sc]
+16.5 +14.4 87 +25  1005.6  -0.3  744  280    +19.1     
21 27.05.12 тихо ()   10 км  {дождь}  8/8 800 м 
[Sc]
+15.7 +14.3 91 +23  1003.9  -1.7  743  280           
00 28.05.12 тихо ()   10 км  {дождь}  10/10 800 м 
[Sc]
+14.4 +13.6 95 +21  1004  743  282           
03 28.05.12 200 (Ю) 2000 м  дымка  10/10 540 м 
[Sc]
+14.8 +14.2 96 +24  1004  -0.1  743  281           
06 28.05.12 270 (З) >10 км  {ливн. осадки}  9/9 600 м 
[Sc diur, vesp]
+15.8 +14.3 91 +25  1004  743  280  +14.3    0.5     
09 28.05.12 250 (З) >10 км    10/10 660 м 
[Sc]
+16.8 +12.7 77 +23  1004.6  0.7  743  280           
12 28.05.12 270 (З) >10 км    10/10 660 м 
[Sc diur, vesp]
+15.3 +11.4 78 +19  1005.4  0.7  744  282           
15 28.05.12 270 (З) >10 км    6/6 700 м 
[Cu med, cong]
+15.9 +9.9 67 +18  1005.1  -0.3  744  281    +17       
18 28.05.12 260 (З) 10 км    8/8 330 м кучево-дожд. 
[Cb cap]
+14.4 +9.3 71 +15  1006.3  1.1  744  283    +17     
21 28.05.12 260 (З) 10 км    8/8 300 м 
[Sc]
+12.8 +8.3 74 +13  1006.5  0.1  745  285           
00 29.05.12 260 (З) 10 км    ясно 
+10.9 +8.5 85 +11  1007.3  0.1  745  287           
03 29.05.12 260 (З) >10 км    ясно 
+13.2 +8.6 74 +14  1008.3  1.1  746  285  +10.9         
06 29.05.12 260 (З) >10 км    ясно 
+18.2 +9.2 56 +19  1008.7  0.7  746  280  +10.9         
09 29.05.12 260 (З) >10 км    4/4 1000 м 
[Cu hum]
+21.5 +8.8 44 +22  1008.5  0.1  746  277           
12 29.05.12 040 (СВ) >10 км  в посл. час гроза{ливн. осадки}  8/8 870 м кучево-дожд. 
[Cb calv]
+18.9 +10.6 59 +22  1008.7  746  279           
15 29.05.12 180 (Ю) >10 км  в посл. час ливневой дождь  6/5 600 м кучево-дожд., средняя 
[Cb calv|Ac lent]
+18.1 +11.8 67 +24  1009.6  0.8  747  280    +22.1       
18 29.05.12 160 (Ю) 10 км  {ливн. осадки}  1/1 600 м 
[Sc diur, vesp]
+14.9 +12.1 83 +20  1010.7  748  283    +22.1     
21 29.05.12 160 (Ю) 10 км    ясно 
+14.1 +10.8 81 +17  1011.6  0.8  748  285           
00 30.05.12 150 (ЮВ) 10 км    ясно 
+12.5 +10.1 85 +15  1012.6  0.9  749  287           
03 30.05.12 тихо ()   >10 км    ясно 
+17.1 +11.1 68 +20  1013.1  0.7  750  282           
06 30.05.12 200 (Ю) >10 км    ясно 
+21.7 +13.9 61 +29  1013.6  0.7  750  277  +12.3         
09 30.05.12 220 (ЮЗ) >10 км    5/5 1000 м 
[Cu med, cong]
+23.8 +10.1 42 +25  1013.7  0.1  750  276           
12 30.05.12 170 (Ю) >10 км    3/3 1000 м 
[Cu med, cong]
+24.5 +11 43 +27  1012.7  -0.9  750  275           
15 30.05.12 140 (ЮВ) >10 км    8/1 600 м средняя, верхняя 
[Sc|Ac cast|Ci fib]
+23.1 +7.8 37 +23  1012.1  -0.7  749  277    +24.9       
18 30.05.12 110 (В) 10 км    9/8 870 м средняя, верхняя 
[Sc diur, vesp|Ac lent|Ci fib]
+21 +9.3 47 +21  1011.7  -0.5  749  279    +24.9       
21 30.05.12 150 (ЮВ) 10 км    9/9 600 м 
[Sc]
+19.6 +11.6 60 +23  1010.9  -0.9  748  279           
00 31.05.12 150 (ЮВ) н/о    н/о 
+17.6 +11.8 69 +23  1010.2  -0.7  747  281           
03 31.05.12 160 (Ю) >10 км    3/0 средняя 
[Ac lent]
+18.5 +12.7 69 +24  1010  -0.2  747  280           
06 31.05.12 220 (ЮЗ) >10 км    9/4 600 м средняя, верхняя 
[Sc diur, vesp|Ac cast|Ci]
+21.9 +12.7 56 +27  1010.8  748  277  +16.5         
09 31.05.12 190 (Ю) 3{12}  >10 км    9/9 870 м 
[Sc]
+21.4 +11.7 54 +25  1010.4  -0.4  748  277           
12 31.05.12 170 (Ю) >10 км  в посл. час гроза{ливн. осадки}  8/8 600 м кучево-дожд. 
[Cb calv]
+19.4 +14 71 +27  1010  -0.4  747  278           
15 31.05.12 180 (Ю) >10 км    8/4 600 м кучево-дожд., средняя 
[Cb calv|Ac lent]
+20 +14 68 +27  1009.2  -0.7  747  278    +23       
18 31.05.12 150 (ЮВ) 10 км    10/1 600 м средняя 
[Sc|Ac As]
+17.5 +13.3 76 +24  1009.3  747  280    +23     
21 31.05.12 160 (Ю) 10 км    10/10 750 м 
[Sc]
+17.5 +13.5 77 +24  1008.2  746  280           
00 01.06.12 160 (Ю) 10 км  слаб. дождь  10/10 630 м 
[Frnb|Ns]
+16.4 +14.2 87 +24  1008.3  746  281           
03 01.06.12 200 (Ю) 10 км  {дождь}  9/9 800 м 
[Sc]
+16.1 +14.5 90 +25  1008.9  0.6  746  281           
Время (UTC), дата Ветер
(°,м/с) 
Видим.   Явления Облачность Т
(°С)
Тd
(°С)
f(%) Тe
(°С)
Pmin
(гПа)
dP
(гПа)
Po
(мм)
O2
(г/м3)
Тmin Tmax R s Состояние
почвы